Location: Agua Amarilla
(10.0342°N, 66.8490°W)
Time: 17:25:42
(UTC+00:00)

Cosmos 405 Rocket - Pass Details

Date: 26 June 2022
Orbit: 484 x 547 km, 81.3° (Epoch: 08 August)

Event Time Altitude Azimuth Distance (km) Brightness Sun altitude
Rises 23:28:55 0° 170° (S) 2,642 5.9 -9.2°
Reaches altitude 10° 23:31:09 10° 161° (SSE) 1,765 5.0 -9.7°
Maximum altitude 23:34:45 36° 94° (E) 857 3.3 -10.5°
Drops below altitude 10° 23:38:23 10° 27° (NNE) 1,794 5.4 -11.3°
Sets 23:40:40 0° 18° (NNE) 2,693 6.5 -11.8°
